Location: Austin
(30.3000°N, 97.7500°W)
Time: 11:56:19
(UTC-05:00)

Resurs 01 Rocket - Pass Details

Date: 05 September 2024
Orbit: 630 x 639 km, 97.8° (Epoch: 11 September)

Event Time Altitude Azimuth Distance (km) Brightness Sun altitude
Exits shadow 20:57:54 26° 115° (ESE) 1,245 2.5 -15.5°
Maximum altitude 20:59:32 36° 74° (ENE) 1,022 2.2 -15.9°
Drops below altitude 10° 21:03:34 10° 8° (N) 2,031 4.3 -16.7°
Sets 21:05:54 0° 360° (N) 2,942 5.3 -17.2°
